Date,TemperatureHighF,TemperatureAvgF,TemperatureLowF,DewpointHighF,DewpointAvgF,DewpointLowF,HumidityHigh,HumidityAvg,HumidityLow,PressureMaxIn,PressureMinIn,WindSpeedMaxMPH,WindSpeedAvgMPH,GustSpeedMaxMPH,PrecipitationSumIn
2013-4-1,73.4,63.1,51.8,62.6,57.9,51.8,100,86,53,29.95,29.86,26,8,26,0.00
2013-4-2,60.8,54.4,46.4,51.8,43.6,36.9,100,70,41,30.17,29.94,23,7,23,0.00
2013-4-3,62.6,52.7,42.8,53.6,44.3,36.9,100,77,39,30.26,30.09,20,7,20,0.00
2013-4-4,59.0,53.6,50.0,59.0,49.9,38.7,100,88,57,30.27,29.84,37,18,37,0.00
2013-4-5,57.2,48.1,42.8,51.8,46.1,42.8,100,94,71,30.05,29.83,24,8,24,0.00
2013-4-6,66.2,52.2,37.4,51.8,44.8,37.4,100,79,42,30.27,30.04,24,7,24,0.00
2013-4-7,69.8,59.0,50.0,59.0,54.0,49.7,100,85,52,30.28,30.17,14,6,14,0.00
2013-4-8,78.8,63.3,48.2,62.3,55.7,48.2,100,80,41,30.22,30.14,23,5,23,0.00
2013-4-9,80.6,68.4,55.4,68.0,60.6,55.0,100,80,44,30.25,30.15,18,6,18,0.00
2013-4-10,80.6,68.1,55.4,65.9,61.3,55.4,100,82,50,30.19,30.06,24,8,24,0.00
2013-4-11,80.6,68.7,55.4,71.6,65.2,55.4,100,90,65,30.06,29.89,30,11,30,0.00
2013-4-12,78.8,70.6,66.2,71.6,69.5,66.1,100,97,78,29.89,29.75,36,18,36,0.00
2013-4-13,73.4,63.1,53.6,68.0,53.6,45.9,100,75,40,30.05,29.81,20,6,20,0.00
2013-4-14,71.6,60.4,48.2,64.4,57.6,48.2,100,91,68,30.11,29.99,21,4,21,0.00
2013-4-15,73.4,66.0,60.8,64.4,62.6,60.5,100,90,68,30.18,29.92,46,10,46,0.00
2013-4-16,77.0,66.5,55.4,64.4,61.3,55.4,100,85,60,30.27,30.18,20,4,20,0.00
2013-4-17,78.8,66.9,55.4,68.0,61.7,55.4,100,86,57,30.26,30.16,18,4,18,0.00
2013-4-18,78.8,68.3,59.0,69.8,64.5,59.0,100,89,61,30.19,30.07,23,7,23,0.00
2013-4-19,78.8,72.2,66.2,71.6,69.5,66.2,100,92,73,30.06,29.89,40,17,40,0.00
2013-4-20,68.0,55.6,44.6,68.0,50.1,42.4,100,84,54,30.26,29.93,25,10,25,0.00
2013-4-21,64.4,54.0,41.0,51.8,46.2,41.0,100,77,55,30.38,30.26,41,22,41,0.00
2013-4-22,68.0,56.0,46.4,51.7,45.1,35.4,87,68,52,30.35,30.16,36,18,36,0.00
2013-4-23,68.0,56.2,50.0,55.4,51.5,48.0,100,85,59,30.23,30.16,24,9,24,0.00
2013-4-24,77.0,57.5,44.6,62.6,53.1,44.6,100,88,47,30.21,30.09,24,4,24,0.00
2013-4-25,77.0,65.8,60.8,64.4,62.7,60.8,100,91,61,30.26,30.10,13,6,13,0.00
2013-4-26,69.8,61.0,51.8,60.8,52.5,40.7,100,78,35,30.41,30.25,25,9,25,0.00
2013-4-27,71.6,61.9,51.8,60.8,54.0,47.9,100,78,43,30.36,30.27,12,4,12,0.00
2013-4-28,71.6,65.1,55.4,64.4,61.4,55.4,100,89,73,30.27,30.10,24,10,24,0.00